Kuiper-00116

operational
NORAD ID: 65153 Int'l Des: 2025-171 Owner: KUIP Country: US Constellation: kuiper
LEOCIRCULAR

Über Kuiper-00116

Beschreibung wird geladen...

Live-Position

3D-Globus wird geladen...

Nächste Überflüge

Höhenverlauf

Altitude vs Time

uPlot chart will show altitude changes over time

Zweizeiliger Elementsatz

1 65153U 25171X 25352.86179424 .00009414 00000-0 12612-2 0 9996
2 65153 51.8979 170.5520 0009694 178.9455 181.1530 14.79945232 20702
Epoch: 18. Dez. 2025 • Age: 7 hours

Aktueller Status

Höhe 635.9 km
Geschwindigkeit 7.54 km/s
Subsatellitenpunkt 14.84°N, 44.52°E
Startdatum 11. Aug. 2025
Alter 0.3 years
Typ internet

Technische Details

Klassifizierung Payload
Masse 490.00 kg
Trockenmasse 490.00 kg
Gesamtmasse 490.00 kg
Länge 1.80 m
Durchmesser 0.70 m
Spannweite 5.00 m
Form Box + 2 pan
Hersteller KUIP
Bus-Typ Kuiper
Phasenstatus In Orbit
Besitzer/Staat KUIP/US

Große Konstellationen

Loading constellations...